Regional Weather Roundup
Issued by NWS Nashville, TN

Home | Current Version | Previous Version | Text Only | Print | Product List | Glossary On
Versions: 1 2 3 4 5 6 7 8 9 10 11 12 13 14 15 16 17 18 19 20 21 22 23 24 25 26 27 28 29 30 31 32 33 34 35 36 37 38 39 40 41 42 43 44 45 46 47 48 49 50
000
ASUS44 KOHX 072110
RWROHX
MIDDLE TENNESSEE HOURLY WEATHER ROUNDUP
NATIONAL WEATHER SERVICE NASHVILLE TN
300 PM CST WED DEC 07 2016

NOTE: "FAIR" INDICATES FEW OR NO CLOUDS BELOW 12,000 FEET WITH
NO SIGNIFICANT WEATHER AND/OR OBSTRUCTIONS TO VISIBILITY.

* THESE REPORTS ARE NOT UNDER NWS QUALITY CONTROL AND MAY NOT
  REPORT WEATHER SUCH AS PRECIPITATION AND FOG.


TNZ005>011-023>034-057-059-062>066-078-080-072200
...NORTHERN MIDDLE TENNESSEE...

CITY           SKY/WX    TMP DP  RH WIND       PRES   REMARKS
CLARKSVILLE    SUNNY     46  22  38 NE8       30.15S
CROSSVILLE     CLOUDY    42  34  73 N6        30.06R
GALLATIN       SUNNY     46  30  53 N5G12     30.16R
LEBANON        MOSUNNY   46  31  56 CALM      30.11R
NASHVILLE      PTSUNNY   49  31  49 N9        30.14R
PORTLAND       SUNNY     45  28  53 N9        30.14R
SMYRNA         PTSUNNY   47  32  56 N8        30.14R
SPRINGFIELD    SUNNY     45  28  53 N5        30.13S
WEST NASHVILLE SUNNY     45  30  57 N8        30.14R
$$
TNZ056-058-060-061-075>077-079-093>097-072200
...SOUTHERN MIDDLE TENNESSEE...

CITY           SKY/WX    TMP DP  RH WIND       PRES   REMARKS
COLUMBIA       MOSUNNY   45  36  70 N3        30.11R
FAYETTEVILLE   CLOUDY    43  36  75 CALM      30.11R
MCMINNVILLE    CLOUDY    43  34  70 NW6         N/A
MURFREESBORO   CLOUDY    46  34  63 CALM      30.12R
SHELBYVILLE    CLOUDY    43  36  75 N5        30.13R
TULLAHOMA      CLOUDY    39  36  87 NW6       30.11R WCI  35
WINCHESTER     CLOUDY    43  36  75 NW3       30.11R
$$


...KEY TO REMARKS...
VSB - VISIBILITY IN MILES
WCI - WIND CHILL INDEX
HX  - HEAT INDEX




USA.gov is the U.S. government's official web portal to all federal, state and local government web resources and services.